1529611200.87,13480,23.75,74042.5,7.15,-17.93,-18.35,0,*73
1529611202.09,13481,23.75,74044.8,7.15,-17.83,-18.25,0,*72
1529611203.31,13482,23.75,74040.8,7.15,-17.73,-18.21,0,*7A
1529611204.57,13483,23.75,74044.3,7.15,-17.79,-18.11,0,*72
1529611205.77,13484,23.75,74042.8,7.17,-17.69,-18.07,0,*71
1529611207.02,13485,23.81,74046.0,7.15,-17.79,-18.21,0,*77
1529611208.29,13486,23.75,74044.0,7.15,-17.93,-18.35,0,*75
1529611209.54,13487,23.81,74046.5,7.11,-17.97,-18.41,0,*77
1529611210.8,13488,23.75,74040.0,7.15,-17.83,-18.35,0,*7A
1529611212.0,13489,23.75,74044.3,7.17,-17.73,-18.21,0,*73
1529611213.27,13490,23.75,74044.8,7.15,-17.93,-18.35,0,*72
1529611214.5,13491,23.75,74044.5,7.13,-17.83,-18.35,0,*74
1529611215.72,13492,23.75,74042.5,7.11,-17.83,-18.25,0,*74
1529611216.97,13493,23.75,74044.5,7.11,-17.79,-18.11,0,*77
1529611218.18,13494,23.75,74042.3,7.13,-17.79,-18.21,0,*71
1529611219.38,13495,23.75,74042.0,7.13,-17.73,-18.07,0,*7E
1529611220.63,13496,23.75,74044.3,7.11,-17.69,-18.01,0,*72
1529611221.85,13497,23.75,74044.0,7.13,-17.63,-18.11,0,*7A
1529611223.07,13498,23.75,74044.8,7.13,-17.79,-18.21,0,*7D
1529611224.26,13499,23.75,74046.5,7.13,-17.73,-18.25,0,*72
1529611225.51,13500,23.75,74044.0,7.13,-17.63,-17.97,0,*74
1529611226.73,13501,23.75,74046.5,7.13,-17.79,-18.07,0,*78
1529611227.93,13502,23.75,74042.5,7.13,-17.73,-18.11,0,*76
1529611229.16,13503,23.81,74046.5,7.11,-17.79,-18.25,0,*78
1529611230.4,13504,23.75,74046.5,7.15,-17.73,-18.11,0,*76
1529611231.62,13505,23.75,74046.0,7.13,-17.79,-18.11,0,*7B
1529611232.84,13506,23.75,74044.3,7.11,-17.83,-18.17,0,*79
1529611234.08,13507,23.75,74044.3,7.11,-17.79,-18.17,0,*7D
1529611235.31,13508,23.75,74046.0,7.11,-17.79,-18.25,0,*73
1529611236.56,13509,23.75,74044.5,7.13,-17.59,-17.97,0,*74
1529611237.81,13510,23.75,74044.0,7.11,-17.79,-18.11,0,*7D
1529611239.01,13511,23.75,74046.5,7.13,-17.49,-18.07,0,*7A
1529611240.21,13512,23.75,74044.8,7.13,-17.73,-18.21,0,*74
1529611241.43,13513,23.75,74046.0,7.11,-17.83,-18.25,0,*7C
1529611242.66,13514,23.75,74044.3,7.11,-17.79,-18.17,0,*7F
1529611243.9,13515,23.75,74044.0,7.11,-17.79,-18.17,0,*7E
1529611245.1,13516,23.75,74046.8,7.13,-17.73,-18.11,0,*73
1529611246.34,13517,23.75,74046.0,7.11,-17.79,-18.25,0,*7D
1529611247.59,13518,23.75,74046.0,7.11,-17.83,-18.31,0,*72
1529611248.87,13519,23.75,74044.5,7.11,-17.79,-18.31,0,*76
1529611250.09,13520,23.75,74048.3,7.13,-17.83,-18.35,0,*7F
1529611251.35,13521,23.75,74046.0,7.11,-17.87,-18.31,0,*7C
1529611252.59,13522,23.75,74044.5,7.11,-17.79,-18.17,0,*7A
1529611253.83,13523,23.75,74046.0,7.13,-17.63,-17.97,0,*75
1529611255.07,13524,23.75,74046.5,7.11,-17.79,-18.25,0,*7D
1529611256.28,13525,23.75,74040.3,7.11,-17.87,-18.25,0,*7D
1529611257.5,13526,23.75,74040.0,7.11,-17.83,-18.25,0,*7A
1529611258.76,13527,23.75,74042.5,7.11,-17.87,-18.31,0,*7A
1529611259.98,13528,23.75,74040.5,7.11,-17.69,-18.11,0,*77
1529611261.2,13529,23.75,74044.3,7.11,-17.69,-18.11,0,*76
1529611262.42,13530,23.75,74046.5,7.11,-17.87,-18.17,0,*78
1529611263.64,13531,23.75,74044.0,7.13,-17.79,-18.25,0,*7B
1529611264.85,13532,23.75,74050.0,7.11,-17.69,-18.17,0,*7A
1529611266.07,13533,23.75,74046.5,7.11,-17.69,-18.17,0,*7B
1529611267.32,13534,23.75,74048.0,7.11,-17.63,-18.11,0,*70
1529611268.58,13535,23.75,74050.0,7.11,-17.63,-18.01,0,*70
1529611269.85,13536,23.75,74050.5,7.11,-17.55,-18.01,0,*76
1529611271.08,13537,23.75,74048.3,7.11,-17.69,-18.11,0,*79
1529611272.33,13538,23.75,74048.8,7.11,-17.83,-18.31,0,*70
1529611273.59,13539,23.75,74048.5,7.11,-17.83,-18.31,0,*71
1529611274.78,13540,23.75,74050.0,7.13,-17.83,-18.41,0,*7A
1529611276.0,13541,23.75,74054.5,7.11,-17.69,-18.25,0,*7F
1529611277.21,13542,23.75,74050.0,7.11,-17.69,-18.17,0,*7D
1529611278.46,13543,23.75,74048.3,7.11,-17.49,-17.97,0,*79
1529611279.74,13544,23.75,74050.0,7.11,-17.63,-17.97,0,*76
1529611281.0,13545,23.75,74050.3,7.11,-17.63,-18.01,0,*77
1529611282.25,13546,23.75,74048.5,7.09,-17.55,-18.01,0,*78
1529611283.45,13547,23.75,74048.3,7.09,-17.73,-18.07,0,*7B
1529611284.64,13548,23.75,74050.0,7.09,-17.73,-18.17,0,*75
1529611285.91,13549,23.75,74050.0,7.11,-17.63,-18.01,0,*7B
1529611287.16,13550,23.75,74050.0,7.11,-17.63,-18.11,0,*72
1529611288.38,13551,23.75,74050.0,7.11,-17.69,-18.11,0,*79
1529611289.6,13552,23.75,74048.3,7.11,-17.69,-18.17,0,*7C
1529611290.81,13553,23.75,74048.0,7.11,-17.69,-18.25,0,*7C
1529611292.03,13554,23.75,74050.8,7.11,-17.83,-18.25,0,*7F
1529611293.26,13555,23.75,74048.3,7.09,-17.87,-18.31,0,*76
1529611294.48,13556,23.75,74048.0,7.09,-17.87,-18.31,0,*75
1529611295.7,13557,23.75,74046.0,7.11,-17.83,-18.25,0,*7C
1529611296.92,13558,23.75,74050.0,7.11,-17.87,-18.25,0,*77
1529611298.17,13559,23.75,74046.5,7.09,-17.93,-18.31,0,*7F
1529611299.39,13560,23.75,74046.3,7.07,-17.87,-18.21,0,*7F
1529611300.63,13561,23.75,74046.5,7.09,-17.87,-18.31,0,*71
1529611301.88,13562,23.75,74048.3,7.07,-17.83,-18.31,0,*78
1529611303.09,13563,23.75,74050.8,7.11,-17.69,-18.25,0,*7F
1529611304.29,13564,23.75,74050.0,7.09,-17.73,-18.17,0,*7B
1529611305.48,13565,23.75,74050.0,7.09,-17.69,-18.17,0,*71
1529611306.73,13566,23.75,74048.0,7.07,-17.59,-18.07,0,*7E
1529611307.96,13567,23.75,74044.0,7.09,-17.83,-18.31,0,*73
1529611309.24,13568,23.75,74046.8,7.07,-17.93,-18.35,0,*77
1529611310.49,13569,23.75,74050.3,7.09,-18.01,-18.35,0,*7C
1529611311.74,13570,23.75,74046.8,7.09,-17.93,-18.31,0,*74
1529611312.96,13571,23.75,74048.3,7.09,-17.87,-18.35,0,*74
1529611314.22,13572,23.75,74046.0,7.07,-18.01,-18.45,0,*7F
1529611315.47,13573,23.75,74044.3,7.07,-18.01,-18.49,0,*72
1529611316.74,13574,23.75,74046.8,7.07,-17.93,-18.35,0,*7A
1529611317.94,13575,23.75,74044.8,7.09,-17.73,-18.21,0,*7E
1529611319.17,13576,23.75,74044.8,7.09,-17.87,-18.31,0,*77
1529611320.39,13577,23.75,74046.5,7.07,-17.87,-18.45,0,*7B
1529611321.62,13578,23.75,74048.0,7.07,-17.87,-18.21,0,*76
1529611322.87,13579,23.75,74046.0,7.07,-17.73,-18.31,0,*7D
1529611324.13,13580,23.75,74044.8,7.07,-17.83,-18.31,0,*74
1529611325.35,13581,23.75,74044.8,7.07,-17.87,-18.17,0,*75
1529611326.63,13582,23.75,74044.8,7.07,-17.59,-18.01,0,*72
1529611327.9,13583,23.75,74044.0,7.07,-17.59,-17.93,0,*77
1529611329.15,13584,23.75,74046.5,7.07,-17.59,-18.07,0,*72
1529611330.42,13585,23.75,74042.8,7.07,-17.59,-18.01,0,*75
1529611331.64,13586,23.75,74046.0,7.05,-17.63,-18.07,0,*7B
1529611332.9,13587,23.75,74048.3,7.05,-17.45,-17.97,0,*78
1529611334.13,13588,23.75,74044.0,7.05,-17.45,-17.87,0,*76
1529611335.41,13589,23.75,74048.5,7.07,-17.59,-18.01,0,*79
1529611336.65,13590,23.75,74046.5,7.07,-17.69,-17.93,0,*76
1529611337.93,13591,23.75,74046.8,7.07,-17.55,-18.01,0,*7C
1529611339.18,13592,23.75,74048.5,7.07,-17.69,-18.01,0,*70
1529611340.46,13593,23.75,74046.8,7.07,-17.93,-18.31,0,*77
1529611341.68,13594,23.75,74046.0,7.07,-17.69,-18.07,0,*70
1529611342.96,13595,23.75,74048.3,7.07,-17.55,-17.93,0,*7C
1529611344.23,13596,23.75,74050.0,7.07,-17.55,-17.93,0,*7F
1529611345.5,13597,23.75,74050.8,7.07,-17.55,-17.93,0,*7E
1529611346.77,13598,23.75,74048.3,7.07,-17.55,-18.01,0,*75
1529611348.03,13599,23.75,74048.8,7.07,-17.83,-18.31,0,*7C
1529611349.26,13600,23.75,74050.8,7.07,-17.83,-18.21,0,*7E
1529611350.48,13601,23.75,74050.5,7.07,-17.83,-18.21,0,*7F
1529611351.7,13602,23.75,74048.3,7.07,-17.73,-18.17,0,*76
1529611352.95,13603,23.75,74048.8,7.07,-17.59,-18.07,0,*7E
1529611354.23,13604,23.75,74050.5,7.07,-17.55,-18.01,0,*73
1529611355.48,13605,23.75,74050.5,7.07,-17.55,-17.87,0,*73
1529611356.75,13606,23.75,74048.5,7.07,-17.55,-17.93,0,*75
1529611358.02,13607,23.75,74048.3,7.07,-17.59,-17.93,0,*78
1529611359.3,13608,23.75,74046.0,7.07,-17.59,-18.01,0,*73
1529611360.55,13609,23.75,74048.0,7.07,-17.55,-17.87,0,*7F
1529611361.83,13610,23.75,74050.0,7.07,-17.55,-18.01,0,*76
1529611363.08,13611,23.75,74048.0,7.07,-17.59,-18.07,0,*7D
1529611364.33,13612,23.75,74050.5,7.07,-17.73,-18.01,0,*70
1529611365.6,13613,23.75,74044.5,7.07,-17.59,-17.93,0,*7D
1529611366.87,13614,23.75,74048.3,7.07,-17.59,-18.01,0,*7E
1529611368.15,13615,23.75,74046.8,7.07,-17.59,-18.01,0,*7F
1529611369.41,13616,23.75,74048.5,7.07,-17.41,-17.83,0,*70
1529611370.68,13617,23.75,74048.0,7.07,-17.55,-17.93,0,*75
1529611371.94,13618,23.75,74046.8,7.07,-17.45,-17.83,0,*7A
1529611373.17,13619,23.75,74044.0,7.07,-17.31,-17.83,0,*78
1529611374.43,13620,23.75,74046.0,7.07,-17.41,-17.83,0,*75
1529611375.69,13621,23.75,74044.3,7.07,-17.45,-17.87,0,*74
1529611376.95,13622,23.75,74046.3,7.07,-17.45,-17.83,0,*73
1529611378.17,13623,23.75,74048.3,7.07,-17.31,-17.83,0,*71
1529611379.43,13624,23.75,74046.3,7.07,-17.55,-17.87,0,*70
1529611380.68,13625,23.75,74044.0,7.07,-17.69,-18.01,0,*7F
1529611381.9,13626,23.75,74048.3,7.09,-17.73,-18.01,0,*79
1529611383.16,13627,23.75,74046.0,7.07,-17.41,-17.83,0,*72
1529611384.41,13628,23.75,74046.0,7.09,-17.55,-18.01,0,*73
1529611385.64,13629,23.75,74048.3,7.09,-17.45,-17.83,0,*76
1529611386.86,13630,23.75,74046.0,7.07,-17.83,-18.17,0,*78
1529611388.08,13631,23.75,74044.8,7.07,-17.73,-18.21,0,*73
1529611389.28,13632,23.75,74046.0,7.09,-17.83,-18.17,0,*74
1529611390.56,13633,23.75,74046.5,7.07,-17.59,-18.01,0,*7B
1529611391.8,13634,23.75,74044.8,7.07,-17.69,-17.93,0,*7B
1529611393.0,13635,23.75,74046.8,7.09,-17.73,-18.07,0,*7D
1529611394.23,13636,23.75,74044.8,7.07,-17.73,-18.07,0,*70
1529611395.45,13637,23.75,74050.0,7.07,-17.69,-18.07,0,*7A
1529611396.67,13638,23.75,74048.3,7.09,-17.73,-17.93,0,*72
1529611397.89,13639,23.75,74050.8,7.09,-17.73,-17.93,0,*73
1529611399.11,13640,23.75,74050.0,7.07,-17.83,-18.17,0,*7F
1529611400.35,13641,23.75,74050.3,7.07,-17.73,-17.93,0,*72
1529611401.62,13642,23.75,74046.3,7.07,-17.41,-17.83,0,*71
1529611402.83,13643,23.75,74044.8,7.07,-17.31,-17.73,0,*78
1529611404.09,13644,23.75,74044.5,7.07,-17.55,-17.87,0,*76
1529611405.32,13645,23.75,74046.5,7.09,-17.41,-17.83,0,*78
1529611406.54,13646,23.75,74048.8,7.07,-17.31,-17.73,0,*7D
1529611407.82,13647,23.75,74046.0,7.07,-17.25,-17.59,0,*71
1529611409.07,13648,23.75,74044.8,7.09,-17.25,-17.55,0,*7C
1529611410.32,13649,23.75,74046.5,7.09,-17.25,-17.59,0,*71
1529611411.54,13650,23.75,74042.3,7.09,-17.25,-17.69,0,*7A
1529611412.8,13651,23.75,74040.5,7.09,-17.17,-17.45,0,*74
1529611414.05,13652,23.75,74038.8,7.09,-17.17,-17.45,0,*77
1529611415.3,13653,23.75,74034.5,7.09,-17.17,-17.55,0,*77
1529611416.54,13654,23.75,74034.8,7.11,-17.11,-17.49,0,*72
1529611417.77,13655,23.75,74038.8,7.11,-16.97,-17.35,0,*77
1529611418.99,13656,23.75,74038.5,7.13,-16.93,-17.21,0,*77
1529611420.19,13657,23.75,74042.5,7.13,-16.89,-17.31,0,*7C
1529611421.41,13658,23.75,74036.5,7.13,-17.03,-17.31,0,*70
1529611422.63,13659,23.75,74036.3,7.13,-16.97,-17.41,0,*7A
1529611423.86,13660,23.75,74038.3,7.13,-17.03,-17.35,0,*7F
1529611425.12,13661,23.75,74036.5,7.11,-17.07,-17.35,0,*78
1529611426.35,13662,23.75,74036.3,7.13,-17.17,-17.35,0,*78
1529611427.58,13663,23.75,74042.0,7.13,-17.07,-17.35,0,*78
1529611428.83,13664,23.75,74040.5,7.13,-17.03,-17.45,0,*7C
1529611430.09,13665,23.75,74040.8,7.15,-17.07,-17.35,0,*78
1529611431.38,13666,23.75,74038.0,7.15,-17.17,-17.63,0,*79
1529611432.66,13667,23.75,74036.5,7.15,-17.21,-17.59,0,*74
1529611433.91,13668,23.75,74038.3,7.17,-17.17,-17.55,0,*70
1529611435.19,13669,23.75,74040.0,7.15,-17.21,-17.59,0,*7A
1529611436.45,13670,23.75,74042.8,7.17,-17.17,-17.55,0,*79
1529611437.7,13671,23.75,74040.8,7.17,-17.25,-17.59,0,*75
1529611438.95,13672,23.75,74040.5,7.17,-17.25,-17.59,0,*76
1529611440.21,13673,23.75,74046.5,7.17,-17.17,-17.55,0,*7A
1529611441.46,13674,23.75,74038.5,7.15,-17.21,-17.49,0,*77
1529611442.73,13675,23.75,74040.0,7.19,-17.11,-17.45,0,*75
1529611444.01,13676,23.75,74042.3,7.19,-17.17,-17.55,0,*71
1529611445.28,13677,23.75,74040.5,7.19,-17.11,-17.45,0,*77
1529611446.51,13678,23.75,74042.3,7.21,-17.07,-17.49,0,*78
1529611447.78,13679,23.75,74040.0,7.19,-17.17,-17.55,0,*7E
1529611449.06,13680,23.75,74038.8,7.19,-17.25,-17.59,0,*75
1529611450.31,13681,23.75,74036.3,7.21,-17.11,-17.55,0,*74
1529611451.56,13682,23.75,74038.0,7.21,-17.11,-17.55,0,*77
1529611452.81,13683,23.75,74036.8,7.21,-17.21,-17.55,0,*75
1529611454.09,13684,23.75,74042.5,7.19,-17.17,-17.59,0,*70
1529611455.3,13685,23.75,74040.5,7.21,-17.35,-17.69,0,*79
1529611456.55,13686,23.75,74042.3,7.19,-17.25,-17.69,0,*70
1529611457.8,13687,23.75,74040.5,7.19,-17.41,-17.73,0,*78
1529611459.07,13688,23.75,74044.0,7.19,-17.45,-17.79,0,*79
1529611460.28,13689,23.75,74046.0,7.21,-17.49,-17.83,0,*7A
1529611461.56,13690,23.75,74042.5,7.19,-17.45,-17.79,0,*70
1529611462.83,13691,23.75,74042.8,7.19,-17.59,-18.01,0,*7C
1529611464.06,13692,23.75,74042.3,7.21,-17.69,-17.97,0,*77
1529611465.33,13693,23.75,74040.5,7.19,-17.45,-17.93,0,*77
1529611466.59,13694,23.75,74040.8,7.19,-17.55,-17.87,0,*74
1529611467.83,13695,23.75,74036.5,7.17,-17.59,-18.01,0,*76
1529611469.09,13696,23.75,74040.8,7.17,-17.45,-17.79,0,*78
1529611470.34,13697,23.75,74040.0,7.19,-17.45,-17.87,0,*76
1529611471.6,13698,23.75,74040.0,7.19,-17.45,-17.87,0,*79
1529611472.85,13699,23.75,74038.8,7.19,-17.69,-18.01,0,*77
1529611474.07,13700,23.75,74038.8,7.17,-17.69,-18.01,0,*78
1529611475.34,13701,23.75,74038.3,7.19,-17.59,-18.01,0,*74
1529611476.61,13702,23.75,74038.3,7.19,-17.59,-18.01,0,*77
1529611477.89,13703,23.75,74038.3,7.19,-17.45,-17.79,0,*7B
1529611479.16,13704,23.75,74042.3,7.19,-17.55,-17.79,0,*7D
1529611480.44,13705,23.75,74038.3,7.19,-17.45,-17.79,0,*7D
1529611481.63,13706,23.75,74036.3,7.17,-17.31,-17.69,0,*72
1529611482.83,13707,23.75,74036.3,7.17,-17.31,-17.73,0,*78
1529611484.08,13708,23.75,74038.3,7.19,-17.25,-17.69,0,*77
1529611485.3,13709,23.75,74038.8,7.17,-17.25,-17.69,0,*78
1529611486.52,13710,23.75,74042.5,7.19,-17.31,-17.69,0,*7B
1529611487.77,13711,23.75,74038.8,7.19,-17.25,-17.69,0,*7F
1529611489.03,13712,23.75,74036.5,7.21,-17.21,-17.63,0,*79
1529611490.26,13713,23.75,74038.0,7.21,-17.25,-17.69,0,*76
1529611491.46,13714,23.75,74038.8,7.21,-17.35,-17.73,0,*7B
1529611492.74,13715,23.75,74040.8,7.19,-17.41,-17.79,0,*78
1529611494.01,13716,23.75,74042.0,7.19,-17.41,-17.79,0,*7B
1529611495.22,13717,23.75,74038.0,7.21,-17.35,-17.73,0,*78
1529611496.49,13718,23.75,74038.0,7.19,-17.41,-17.79,0,*75
1529611497.73,13719,23.75,74040.0,7.21,-17.41,-17.83,0,*7A
1529611498.98,13720,23.75,74042.3,7.19,-17.55,-17.87,0,*7A
1529611500.19,13721,23.75,74038.0,7.21,-17.49,-17.87,0,*7D
1529611501.41,13722,23.75,74038.3,7.19,-17.69,-18.07,0,*70
1529611502.64,13723,23.75,74036.8,7.19,-17.69,-18.07,0,*71
1529611503.89,13724,23.75,74036.3,7.19,-17.69,-18.01,0,*70
1529611505.13,13725,23.75,74038.0,7.19,-17.69,-18.01,0,*71
1529611506.36,13726,23.75,74040.3,7.21,-17.55,-17.87,0,*77
1529611507.61,13727,23.75,74040.5,7.19,-17.73,-18.01,0,*78
1529611508.83,13728,23.75,74036.8,7.19,-17.73,-18.07,0,*71
1529611510.04,13729,23.75,74040.8,7.21,-17.69,-18.11,0,*77
1529611511.26,13730,23.75,74042.3,7.19,-17.73,-18.07,0,*78
1529611512.48,13731,23.75,74040.5,7.19,-17.73,-18.07,0,*79
1529611513.71,13732,23.75,74036.8,7.21,-17.63,-18.11,0,*77
1529611514.95,13733,23.75,74042.3,7.19,-17.79,-18.21,0,*75
1529611516.18,13734,23.75,74040.8,7.19,-17.73,-18.07,0,*7C
1529611517.4,13735,23.75,74040.5,7.19,-17.69,-18.07,0,*76
1529611518.62,13736,23.75,74042.0,7.19,-17.69,-18.07,0,*75
1529611519.84,13737,23.75,74042.3,7.19,-17.73,-18.21,0,*7B
1529611521.09,13738,23.75,74040.8,7.17,-17.93,-18.35,0,*71
1529611522.29,13739,23.75,74042.0,7.17,-17.87,-18.21,0,*70
1529611523.51,13740,23.75,74040.5,7.19,-17.73,-18.21,0,*7B
1529611524.71,13741,23.75,74042.3,7.17,-17.87,-18.17,0,*7A
1529611525.96,13742,23.75,74042.0,7.15,-17.97,-18.41,0,*79
1529611527.21,13743,23.75,74042.3,7.17,-17.93,-18.35,0,*7D
1529611528.41,13744,23.75,74040.0,7.17,-17.87,-18.21,0,*7A
1529611529.61,13745,23.75,74040.5,7.17,-17.73,-18.17,0,*75
1529611530.86,13746,23.75,74040.0,7.15,-17.83,-18.35,0,*7B
1529611532.11,13747,23.75,74042.3,7.15,-17.93,-18.25,0,*7A
1529611533.34,13748,23.75,74040.5,7.15,-17.83,-18.21,0,*70
1529611534.57,13749,23.75,74040.5,7.15,-17.83,-18.21,0,*71
1529611535.77,13750,23.75,74042.8,7.17,-17.83,-18.11,0,*78
1529611537.05,13751,23.75,74038.0,7.15,-17.59,-17.97,0,*7D
1529611538.33,13752,23.75,74038.8,7.15,-17.59,-18.01,0,*7E
1529611539.52,13753,23.75,74038.3,7.17,-17.73,-18.17,0,*72
1529611540.72,13754,23.75,74038.0,7.13,-17.83,-18.21,0,*7B
1529611541.98,13755,23.75,74034.5,7.15,-17.79,-18.11,0,*7A
1529611543.17,13756,23.75,74032.0,7.13,-17.83,-18.21,0,*79
1529611544.4,13757,23.75,74038.8,7.13,-17.93,-18.21,0,*79
1529611545.6,13758,23.75,74036.5,7.17,-17.73,-18.07,0,*78
1529611546.85,13759,23.75,74038.0,7.15,-17.79,-18.11,0,*76
1529611548.1,13760,23.75,74038.8,7.15,-17.73,-17.97,0,*77
1529611549.33,13761,23.75,74038.0,7.13,-17.79,-18.11,0,*7B
1529611550.56,13762,23.75,74042.3,7.15,-17.73,-18.07,0,*73
1529611551.75,13763,23.75,74042.0,7.13,-17.83,-18.25,0,*7B
1529611553.03,13764,23.75,74036.8,7.15,-17.63,-17.97,0,*72
1529611554.23,13765,23.69,74036.0,7.13,-17.83,-18.21,0,*79
1529611555.43,13766,23.75,74038.5,7.13,-17.83,-18.07,0,*7E
1529611556.67,13767,23.75,74038.5,7.15,-17.93,-18.25,0,*78
1529611557.9,13768,23.75,74038.0,7.13,-17.93,-18.21,0,*75
1529611559.11,13769,23.75,74042.0,7.11,-17.87,-18.25,0,*77
1529611560.38,13770,23.75,74042.8,7.11,-17.79,-18.01,0,*78
1529611561.6,13771,23.75,74038.5,7.11,-17.87,-18.25,0,*7E
1529611562.84,13772,23.75,74040.3,7.11,-17.79,-18.17,0,*7D
1529611564.11,13773,23.75,74040.3,7.11,-17.79,-18.01,0,*7B
1529611565.35,13774,23.75,74042.3,7.11,-17.69,-18.01,0,*7D
1529611566.62,13775,23.75,74046.5,7.11,-17.63,-18.01,0,*76
1529611567.87,13776,23.75,74042.5,7.13,-17.63,-17.97,0,*77
1529611569.13,13777,23.75,74040.0,7.11,-17.79,-18.01,0,*7F
1529611570.37,13778,23.75,74036.8,7.11,-17.79,-18.17,0,*77
1529611571.62,13779,23.75,74040.0,7.09,-17.93,-18.31,0,*7F
1529611572.85,13780,23.75,74042.0,7.13,-17.93,-18.11,0,*70
1529611574.09,13781,23.75,74042.3,7.11,-17.79,-18.17,0,*71
1529611575.32,13782,23.75,74042.5,7.11,-17.69,-18.11,0,*75
1529611576.56,13783,23.75,74040.5,7.11,-17.63,-17.87,0,*7E
1529611577.82,13784,23.69,74036.0,7.11,-17.41,-17.83,0,*7D
1529611579.07,13785,23.75,74040.0,7.11,-17.69,-17.97,0,*73
1529611580.32,13786,23.75,74036.5,7.11,-17.83,-18.01,0,*74
1529611581.54,13787,23.75,74038.3,7.13,-17.79,-18.21,0,*70
1529611582.79,13788,23.75,74040.3,7.09,-17.93,-18.31,0,*71
1529611584.03,13789,23.69,74038.0,7.11,-17.79,-18.17,0,*79
1529611585.27,13790,23.75,74038.3,7.11,-17.69,-18.01,0,*77
1529611586.47,13791,23.75,74042.3,7.13,-17.73,-18.07,0,*79
1529611587.67,13792,23.75,74040.5,7.09,-17.73,-18.07,0,*71
1529611588.92,13793,23.75,74036.5,7.11,-17.35,-17.79,0,*7D
1529611590.11,13794,23.75,74036.5,7.09,-17.31,-17.73,0,*7D
1529611591.34,13795,23.75,74036.5,7.09,-17.25,-17.69,0,*72
1529611592.56,13796,23.69,74036.8,7.09,-17.25,-17.69,0,*71
1529611593.79,13797,23.75,74036.8,7.11,-17.35,-17.69,0,*78
1529611595.04,13798,23.75,74036.5,7.11,-17.25,-17.69,0,*76
1529611596.28,13799,23.75,74042.3,7.11,-17.21,-17.49,0,*71
1529611597.51,13800,23.75,74042.8,7.13,-17.17,-17.49,0,*79
1529611598.76,13801,23.75,74038.8,7.13,-17.21,-17.59,0,*7C
1529611600.02,13802,23.75,74036.5,7.13,-17.17,-17.59,0,*7A
1529611601.24,13803,23.75,74036.8,7.13,-17.31,-17.63,0,*76
1529611602.49,13804,23.69,74036.3,7.13,-17.21,-17.59,0,*79
1529611603.77,13805,23.75,74038.8,7.15,-17.17,-17.45,0,*76
1529611604.96,13806,23.75,74038.3,7.13,-16.93,-17.31,0,*7D
1529611606.19,13807,23.75,74040.0,7.13,-17.07,-17.35,0,*74
1529611607.41,13808,23.69,74038.8,7.13,-16.93,-17.21,0,*72
1529611608.67,13809,23.75,74042.8,7.15,-16.89,-17.21,0,*7E
1529611609.95,13810,23.75,74038.0,7.15,-17.17,-17.45,0,*72
1529611611.2,13811,23.75,74038.3,7.17,-17.07,-17.45,0,*70
1529611612.42,13812,23.75,74032.8,7.17,-17.03,-17.31,0,*74
1529611613.67,13813,23.69,74030.3,7.17,-17.11,-17.45,0,*75
1529611614.92,13814,23.75,74038.3,7.17,-17.11,-17.45,0,*72
1529611616.17,13815,23.69,74034.5,7.17,-17.03,-17.41,0,*74
1529611617.42,13816,23.69,74032.0,7.17,-17.11,-17.45,0,*70
1529611618.67,13817,23.75,74034.8,7.17,-17.11,-17.41,0,*75
1529611619.92,13818,23.75,74034.3,7.17,-17.03,-17.25,0,*7B
1529611621.19,13819,23.75,74038.5,7.19,-17.11,-17.45,0,*71
1529611622.46,13820,23.69,74034.0,7.19,-17.03,-17.41,0,*7C
1529611623.7,13821,23.75,74036.5,7.21,-16.93,-17.07,0,*7C
1529611624.94,13822,23.75,74038.3,7.19,-16.75,-17.17,0,*7D
1529611626.16,13823,23.75,74038.0,7.19,-16.97,-17.31,0,*74
1529611627.39,13824,23.75,74034.5,7.21,-16.83,-17.21,0,*7C
1529611628.62,13825,23.75,74036.8,7.21,-16.83,-17.21,0,*7D
1529611629.85,13826,23.75,74038.8,7.21,-16.83,-17.25,0,*7A
1529611631.08,13827,23.75,74036.3,7.21,-17.07,-17.49,0,*7C
1529611632.3,13828,23.69,74032.5,7.25,-17.03,-17.49,0,*73
1529611633.56,13829,23.69,74034.0,7.25,-17.21,-17.59,0,*73
1529611634.81,13830,23.75,74036.5,7.25,-17.21,-17.59,0,*7B
1529611636.06,13831,23.69,74036.3,7.27,-17.07,-17.49,0,*7D
1529611637.31,13832,23.75,74034.8,7.25,-17.21,-17.63,0,*70
1529611638.56,13833,23.75,74038.5,7.25,-17.21,-17.63,0,*71
1529611639.81,13834,23.75,74038.8,7.25,-17.07,-17.59,0,*7B
1529611641.06,13835,23.69,74038.0,7.25,-17.21,-17.63,0,*77
1529611642.26,13836,23.69,74038.5,7.25,-17.35,-17.69,0,*7B
1529611643.52,13837,23.75,74042.5,7.25,-17.21,-17.59,0,*7C
1529611644.77,13838,23.69,74040.5,7.25,-17.21,-17.59,0,*73
1529611645.99,13839,23.75,74036.0,7.25,-17.07,-17.49,0,*77
1529611647.24,13840,23.69,74036.8,7.27,-17.07,-17.49,0,*7B
1529611648.5,13841,23.75,74034.8,7.29,-17.03,-17.45,0,*7C
1529611649.73,13842,23.69,74036.8,7.25,-17.03,-17.35,0,*74
1529611650.94,13843,23.75,74038.5,7.27,-16.93,-17.31,0,*7B
1529611652.2,13844,23.75,74036.3,7.25,-17.03,-17.45,0,*75
1529611653.45,13845,23.69,74034.3,7.27,-17.21,-17.49,0,*7A
1529611654.7,13846,23.75,74036.8,7.29,-17.03,-17.45,0,*7B
1529611655.92,13847,23.75,74036.8,7.29,-16.89,-17.25,0,*7F
1529611657.17,13848,23.69,74030.3,7.27,-16.79,-17.17,0,*70
1529611658.42,13849,23.75,74034.0,7.27,-16.89,-17.21,0,*7B
1529611659.68,13850,23.75,74032.0,7.27,-16.75,-17.17,0,*75
1529611660.92,13851,23.75,74028.5,7.27,-16.79,-17.17,0,*78
1529611662.16,13852,23.69,74026.0,7.29,-16.75,-17.11,0,*7F
1529611663.36,13853,23.75,74024.8,7.29,-16.59,-16.97,0,*7F
1529611664.61,13854,23.75,74028.0,7.31,-16.75,-17.11,0,*70
1529611665.86,13855,23.69,74030.8,7.31,-16.75,-17.03,0,*72
1529611667.11,13856,23.75,74034.5,7.31,-16.97,-17.45,0,*7F
1529611668.39,13857,23.69,74034.0,7.31,-17.03,-17.59,0,*7F
1529611669.66,13858,23.69,74036.3,7.31,-17.03,-17.41,0,*79
1529611670.91,13859,23.69,74034.8,7.31,-16.97,-17.41,0,*74
1529611672.13,13860,23.69,74036.5,7.31,-16.89,-17.31,0,*76
1529611673.35,13861,23.75,74038.8,7.33,-16.93,-17.41,0,*79
1529611674.6,13862,23.75,74038.5,7.35,-16.93,-17.21,0,*7A
1529611675.82,13863,23.69,74038.8,7.33,-16.93,-17.25,0,*79
1529611677.04,13864,23.69,74036.0,7.33,-16.93,-17.25,0,*7E
1529611678.25,13865,23.69,74038.0,7.33,-16.89,-17.35,0,*75
1529611679.48,13866,23.69,74036.5,7.35,-16.93,-17.35,0,*7B
1529611680.74,13867,23.75,74038.8,7.35,-17.03,-17.35,0,*72
1529611681.98,13868,23.69,74034.5,7.35,-17.03,-17.31,0,*79
1529611683.21,13869,23.69,74032.5,7.35,-16.93,-17.35,0,*74
1529611684.42,13870,23.75,74034.5,7.33,-16.93,-17.35,0,*7A
1529611685.64,13871,23.75,74032.5,7.35,-16.89,-17.31,0,*72
1529611686.87,13872,23.75,74032.8,7.35,-16.93,-17.35,0,*7E
1529611688.12,13873,23.69,74034.5,7.35,-17.03,-17.35,0,*77
1529611689.37,13874,23.69,74034.3,7.35,-17.07,-17.49,0,*7F
1529611690.63,13875,23.69,74034.0,7.35,-17.03,-17.35,0,*71
1529611691.91,13876,23.69,74032.3,7.35,-17.03,-17.45,0,*75
1529611693.15,13877,23.75,74034.3,7.35,-16.93,-17.45,0,*7C
1529611694.35,13878,23.75,74038.8,7.33,-16.97,-17.49,0,*7D
1529611695.58,13879,23.69,74034.0,7.37,-16.93,-17.45,0,*70
1529611696.83,13880,23.69,74032.5,7.37,-17.03,-17.45,0,*7E
1529611698.09,13881,23.75,74038.8,7.37,-17.21,-17.55,0,*7E
1529611699.31,13882,23.75,74036.0,7.37,-16.93,-17.45,0,*74
1529611700.54,13883,23.69,74034.5,7.35,-16.93,-17.35,0,*70
1529611701.79,13884,23.69,74028.0,7.35,-16.89,-17.21,0,*79
1529611703.02,13885,23.69,74034.5,7.37,-16.75,-17.17,0,*7C
1529611704.25,13886,23.69,74034.5,7.37,-16.75,-17.07,0,*7E